This is the latest recevied weather packets stored in our database for station/object NZ3C. If no packets are shown the sender has not sent any weather packets the latest 10 day(s).
| Time | Temp. | Humidity | Pressure | Rain* | Wind** | Luminosity | Snow |
|---|---|---|---|---|---|---|---|
| 1777019949 | 18.89° C | 50% | 1013.1 hPa | 0 mm | - | 0 W/m² | - |
| 1777019644 | 18.33° C | 50% | 1013.1 hPa | 0 mm | - | 0 W/m² | - |
| 1777019342 | 18.33° C | 50% | 1013.2 hPa | 0 mm | - | 0 W/m² | - |
| 1777019038 | 18.33° C | 51% | 1013.1 hPa | 0 mm | - | 0 W/m² | - |
| 1777018735 | 18.33° C | 51% | 1012.9 hPa | 0 mm | - | 0 W/m² | - |
| 1777018432 | 18.33° C | 50% | 1013 hPa | 0 mm | - | 0 W/m² | - |
| 1777018129 | 18.89° C | 50% | 1013 hPa | 0 mm | - | 0 W/m² | - |
| 1777017825 | 18.89° C | 50% | 1013 hPa | 0 mm | - | 0 W/m² | - |
| 1777017521 | 18.89° C | 50% | 1013 hPa | 0 mm | - | 0 W/m² | - |
| 1777017218 | 18.89° C | 49% | 1013 hPa | 0 mm | - | 0 W/m² | - |
| 1777016914 | 18.89° C | 49% | 1013 hPa | 0 mm | - | 0 W/m² | - |
| 1777016611 | 18.89° C | 50% | 1013.1 hPa | 0 mm | - | 0 W/m² | - |
| 1777016307 | 18.89° C | 50% | 1012.9 hPa | 0 mm | - | 0 W/m² | - |
| 1777016005 | 18.89° C | 49% | 1013.1 hPa | 0 mm | - | 0 W/m² | - |
| 1777015701 | 19.44° C | 49% | 1013.2 hPa | 0 mm | - | 0 W/m² | - |
| 1777015398 | 19.44° C | 48% | 1012.9 hPa | 0 mm | - | 0 W/m² | - |
| 1777015094 | 19.44° C | 48% | 1013 hPa | 0 mm | - | 0 W/m² | - |
| 1777014789 | 19.44° C | 48% | 1013.1 hPa | 0 mm | - | 0 W/m² | - |
| 1777014483 | 20° C | 48% | 1013.1 hPa | 0 mm | - | 0 W/m² | - |
| 1777014178 | 19.44° C | 49% | 1012.9 hPa | 0 mm | - | 0 W/m² | - |
| 1777013875 | 20° C | 48% | 1013.1 hPa | 0 mm | - | 0 W/m² | - |
| 1777013572 | 20° C | 49% | 1013 hPa | 0 mm | - | 0 W/m² | - |
| 1777013269 | 20° C | 49% | 1013 hPa | 0 mm | - | 0 W/m² | - |
| 1777012966 | 20° C | 49% | 1013.2 hPa | 0 mm | - | 0 W/m² | - |
| 1777012663 | 20° C | 49% | 1013 hPa | 0 mm | - | 0 W/m² | - |
* Rain latest hour (hover to see other rain measurements)
** Current wind speed in m/s (hover to see current wind gust speed)